Home   Weather   Woodbridge Park   Past weeks
Flag for USA

Past Weather in Woodbridge Park, California, USA — Yesterday and Last 2 Weeks

Now
67 °F

Sunny.


Feels Like: 67 °F
Forecast: 69 / 45 °F
Wind: No wind

Location: Los Angeles / USC Campus Downtown

Current Time: Jan 22, 2019 at 5:07:47 pm

Latest Report: Jan 22, 2019 at 3:47 pm


Visibility: 10 mi

Pressure: 30.22 "Hg

Humidity: 22%

Dew Point: 27 °F

Location of Woodbridge ParkLocation

Past Weather in Woodbridge Park — Graph

°F

Woodbridge Park Temperature Yesterday

Maximum temperature yesterday: 62 °F (at 2:47 pm)
Minimum temperature yesterday: 53 °F (at 4:47 am)
Average temperature yesterday: 57 °F

High & Low Weather Summary for the Past Weeks

 TemperatureHumidityPressure
High78 °F (Jan 19, 2:47 pm)100% (Jan 16, 9:25 pm)30.27 "Hg (Jan 16, 9:25 pm)
Low48 °F (Jan 9, 4:47 am)22% (Jan 22, 11:47 am)29.95 "Hg (Jan 14, 1:47 pm)
Average59 °F74%30.10 "Hg
* Reported Jan 7 3:28 pm — Jan 22 3:47 pm, Woodbridge Park. Weather by CustomWeather, © 2019

Note: Actual official high and low records may vary slightly from our data, if they occured in-between our weather recording intervals... More about our weather records

Advertising

Woodbridge Park Weather History for the Previous 24 Hours

Scroll right to see more
 ConditionsComfort  
Time TempWeatherWind HumidityBarometerVisibility
3:47 pm
Tue, Jan 22
67 °FSunny.No wind22%30.22 "Hg10 mi
2:47 pm67 °FSunny.No wind22%30.22 "Hg10 mi
1:47 pm66 °FSunny.No wind22%30.23 "Hg10 mi
12:47 pm66 °FSunny.No wind22%30.23 "Hg10 mi
11:47 am66 °FSunny.5 mph22%30.23 "Hg10 mi
10:47 am63 °FSunny.3 mph30%30.24 "Hg10 mi
8:47 am56 °FSunny.No wind40%30.24 "Hg10 mi
7:47 am51 °FSunny.No wind50%30.22 "Hg10 mi
6:47 am48 °FClear.No wind54%30.19 "Hg10 mi
5:47 am51 °FClear.No wind44%30.18 "Hg10 mi
4:47 am55 °FClear.6 mph33%30.14 "Hg10 mi
3:47 am54 °FClear.8 mph41%30.13 "Hg10 mi
2:47 am54 °FClear.7 mph43%30.13 "Hg10 mi
1:47 am54 °FClear.5 mph45%30.13 "Hg10 mi
12:47 am55 °FClear.7 mph42%30.11 "Hg10 mi
11:47 pm
Mon, Jan 21
56 °FClear.8 mph39%30.12 "Hg10 mi
10:47 pm55 °FClear.7 mph40%30.11 "Hg10 mi
9:47 pm55 °FClear.No wind40%30.10 "Hg10 mi
8:47 pm56 °FClear.6 mph39%30.09 "Hg10 mi
7:47 pm55 °FClear.No wind42%30.08 "Hg10 mi
6:47 pm56 °FClear.8 mph40%30.05 "Hg10 mi
5:47 pm57 °FClear.12 mph39%30.04 "Hg10 mi
Weather by CustomWeather, © 2019

See weather overview